{"data":{"norad_id":41772,"epoch":"2026-05-25T01:57:25.422336Z","epoch_age_seconds":64412,"freshness":"FRESH","line1":"1 41772U 16058C   26145.08154424  .00006880  00000+0  21081-3 0  9993","line2":"2 41772  97.0490 186.7567 0003706  46.5945 313.5607 15.34086426540206","mean_motion":15.34086426,"eccentricity":0.0003706,"inclination_deg":97.049,"raan_deg":186.7567,"arg_perigee_deg":46.5945,"mean_anomaly_deg":313.5607,"bstar":0.00021081,"rev_number":54020,"period_min":93.866940975071,"perigee_km":461.09984611564,"apogee_km":466.17096782369,"semimajor_km":6841.7724069697,"source":"CELESTRAK","updated_at":"2026-05-25T13:38:13.295204Z"}}